Find Starlink 5295

NORAD ID: 55306 Int'l Des: 2023-010 Owner: SPXS Country: US Constellation: starlink operational
LEOCIRCULAR

Live Position

Loading 3D Globe...

About Starlink 5295

Description loading...

Upcoming Passes

Passes for default location (London). Set your location on the main map for personalized predictions.

Altitude History

Loading altitude history...

Two-Line Element Set

1 55306U 23010AP 26104.63790589 .00000179 00000-0 22831-4 0 9992
2 55306 69.9986 273.9491 0002957 276.0157 84.0665 14.98329225179151
Epoch: Apr 14, 2026 • Age: 11 hours

Current Status

Altitude 578.5 km
Velocity 7.57 km/s
Sub-Earth Point -21.05°S, 25.12°E
Launch Date Jan 19, 2023
Age 3.2 years
Type internet

Technical Details

Classification Payload
Mass 305.00 kg
Dry Mass 290.00 kg
Total Mass 305.00 kg
Length 0.20 m
Diameter 2.80 m
Span 9.00 m
Shape Box + pan
Manufacturer SPXS
Bus Type Starlink
Phase Status In Orbit
Owner/State SPXS/US

Most Searched